Location: アルンシュタイン
(50.0000°N, 10.0000°E)
Time: 18:08:48
(UTC+02:00)

Vanguard 2 Rocket - All Passes

Search period start: 11 September 2024 00:00
Search period end: 21 September 2024 00:00
Orbit: 553 x 3301 km, 32.9° (Epoch: 10 September)

Date Brightness Start Highest point End Pass type
(mag) Time Alt. Az. Time Alt. Az. Time Alt. Az.
11 Sep - 02:22:05 10° S 02:30:33 21° SE 02:41:41 10° E visible
11 Sep - 04:30:58 10° SW 04:43:37 39° SSE 05:00:42 10° ESE visible
11 Sep - 06:43:24 10° WSW 06:58:44 44° S 07:16:45 10° ESE daylight
11 Sep - 08:58:30 10° W 09:14:00 32° SSW 09:29:25 10° SSE daylight
11 Sep - 11:19:48 10° WSW 11:27:27 14° SW 11:34:44 10° SSW daylight
12 Sep - 01:22:55 10° SSE 01:27:34 13° SE 01:33:02 10° ESE visible
12 Sep - 03:28:42 10° SSW 03:39:30 33° SSE 03:54:42 10° E visible
12 Sep - 05:39:55 10° WSW 05:53:51 44° S 06:11:52 10° ESE visible
12 Sep - 07:53:45 10° WSW 08:09:16 38° SSW 08:26:09 10° SE daylight
12 Sep - 10:11:21 10° W 10:23:36 21° SW 10:35:25 10° S daylight
13 Sep - 02:27:08 10° SSW 02:35:56 25° SE 02:48:09 10° E visible
13 Sep - 04:36:57 10° SW 04:49:16 41° SSE 05:06:25 10° ESE visible
13 Sep - 06:49:39 10° WSW 07:04:23 41° SSW 07:22:04 10° SE daylight
13 Sep - 09:05:14 10° W 09:19:19 27° SSW 09:33:45 10° SSE daylight
14 Sep - 01:26:41 10° S 01:32:51 17° SE 01:40:46 10° ESE visible
14 Sep - 03:34:30 10° SW 03:45:05 36° SSE 04:00:31 10° ESE visible
14 Sep - 05:46:07 10° WSW 05:59:33 42° S 06:17:17 10° ESE visible
14 Sep - 08:00:15 10° W 08:14:43 33° SSW 08:30:51 10° SSE daylight
14 Sep - 10:19:44 10° WSW 10:28:42 15° SW 10:37:38 10° SSW daylight
15 Sep - 02:32:38 10° SSW 02:41:25 29° SSE 02:54:14 10° E visible
15 Sep - 04:43:05 10° WSW 04:54:58 41° S 05:11:56 10° ESE visible
15 Sep - 06:56:03 10° WSW 07:09:58 37° SSW 07:27:02 10° SE daylight
15 Sep - 09:12:27 10° WSW 09:24:34 21° SW 09:37:16 10° S daylight
16 Sep - 01:31:32 10° S 01:38:15 20° SE 01:47:29 10° ESE visible
16 Sep - 03:40:30 10° SW 03:50:46 37° SSE 04:06:09 10° ESE visible
16 Sep - 05:52:27 10° WSW 06:05:15 39° S 06:22:26 10° SE visible
16 Sep - 08:07:01 10° WSW 08:20:08 27° SSW 08:34:59 10° SSE daylight
17 Sep - 00:32:16 10° SSE 00:35:32 12° SE 00:39:18 10° ESE visible
17 Sep - 02:38:25 10° SW 02:47:02 31° SSE 03:00:04 10° ESE visible
17 Sep - 04:49:20 10° WSW 05:00:44 40° S 05:17:14 10° ESE visible
17 Sep - 07:02:36 10° WSW 07:15:32 32° SSW 07:31:33 10° SSE daylight
17 Sep - 09:20:41 10° WSW 09:29:47 16° SW 09:39:23 10° SSW daylight
18 Sep - 01:36:54 10° SSW 01:43:47 24° SSE 01:53:41 10° ESE visible
18 Sep - 03:46:39 10° SW 03:56:32 37° S 04:11:35 10° ESE visible
18 Sep - 05:58:53 10° WSW 06:10:56 35° SSW 06:27:14 10° SE visible
18 Sep - 08:14:16 10° WSW 08:25:31 21° SW 08:38:17 10° S daylight
19 Sep - 00:36:26 10° S 00:40:58 15° SE 00:46:45 10° ESE visible
19 Sep - 02:44:25 10° SW 02:52:46 33° SSE 03:05:40 10° ESE visible
19 Sep - 04:55:41 10° WSW 05:06:30 37° S 05:22:15 10° SE visible
19 Sep - 07:09:26 10° WSW 07:21:04 26° SSW 07:35:28 10° SSE daylight
20 Sep - 01:42:38 10° SSW 01:49:27 26° SSE 01:59:35 10° ESE visible
20 Sep - 03:52:56 10° WSW 04:02:21 36° S 04:16:48 10° ESE visible
20 Sep - 06:05:31 10° WSW 06:16:37 30° SSW 06:31:34 10° SSE visible
20 Sep - 08:22:33 10° WSW 08:30:54 15° SW 08:40:10 10° S daylight
